Location: Dessau
(51.7984°N, 12.2168°E)
Time: 11:57:08
(UTC+02:00)

ISS - Visible Passes

Search period start: 20 May 2018 00:00
Search period end: 30 May 2018 00:00
Orbit: 402 x 407 km, 51.6° (Epoch: 20 May)

Date Brightness Start Highest point End Pass type
(mag) Time Alt. Az. Time Alt. Az. Time Alt. Az.
20 May -2.3 00:06:25 23° E 00:06:25 23° E 00:07:56 10° E visible
20 May -4.0 01:38:57 19° W 01:41:10 89° S 01:44:27 10° E visible
20 May -3.9 03:14:23 10° W 03:17:37 63° SSW 03:20:52 10° ESE visible
20 May -3.1 23:09:47 10° SW 23:12:43 31° SSE 23:15:40 10° E visible
21 May -4.0 00:45:42 10° WSW 00:48:58 81° S 00:52:16 10° E visible
21 May -4.0 02:22:11 10° W 02:25:28 78° S 02:28:44 10° ESE visible
21 May -3.0 03:58:48 10° W 04:01:41 29° SSW 04:04:33 10° SSE visible
21 May -2.6 22:18:07 10° SSW 22:20:42 21° SE 22:23:15 10° E visible
21 May -4.0 23:53:33 10° WSW 23:56:48 67° SSE 00:00:03 10° E visible
22 May -4.0 01:29:58 10° W 01:33:16 88° S 01:36:33 10° E visible
22 May -3.5 03:06:30 10° W 03:09:36 41° SSW 03:12:43 10° SE visible
22 May -3.7 23:01:27 10° SW 23:04:38 50° SSE 23:07:49 10° E visible
23 May -3.9 00:37:45 10° W 00:41:02 90° S 00:44:19 10° E visible
23 May -3.9 02:14:15 10° W 02:17:28 57° SSW 02:20:41 10° ESE visible
23 May -2.3 03:51:17 10° W 03:53:29 17° SW 03:55:41 10° S visible
23 May -3.2 22:09:29 10° SW 22:12:31 35° SSE 22:15:33 10° E visible
23 May -4.0 23:45:32 10° W 23:48:48 84° S 23:52:05 10° E visible
24 May -4.0 01:22:01 10° W 01:25:17 73° SSW 01:27:48 16° ESE visible
24 May -2.3 02:58:42 10° W 03:00:12 20° WSW 03:00:12 20° WSW visible
24 May -3.9 22:53:19 10° WSW 22:56:36 72° SSE 22:59:51 10° E visible
25 May -4.0 00:29:46 10° W 00:33:03 85° S 00:35:35 16° E visible
25 May -2.6 02:06:19 10° W 02:08:09 26° WSW 02:08:09 26° WSW visible
25 May -3.7 22:01:09 10° WSW 22:04:22 56° SSE 22:07:36 10° E visible
25 May -3.9 23:37:31 10° W 23:40:48 90° SSW 23:44:04 10° E visible
26 May -3.7 01:14:01 10° W 01:17:03 50° SSW 01:17:03 50° SSW visible
26 May -3.9 22:45:15 10° W 22:48:31 87° S 22:51:49 10° E visible
27 May -4.0 00:21:44 10° W 00:25:00 68° SSW 00:26:11 35° ESE visible
27 May -1.3 01:58:31 10° W 01:58:47 11° W 01:58:47 11° W visible
27 May -3.9 21:52:59 10° WSW 21:56:15 77° S 21:59:32 10° E visible
27 May -3.9 23:29:27 10° W 23:32:44 82° S 23:35:24 15° ESE visible
28 May -2.5 01:06:02 10° W 01:08:01 26° WSW 01:08:01 26° WSW visible
28 May -3.9 22:37:09 10° W 22:40:27 89° S 22:43:44 10° E visible
29 May -3.5 00:13:40 10° W 00:16:49 45° SSW 00:17:18 41° S visible
29 May -3.8 23:21:20 10° W 23:24:34 62° SSW 23:26:37 20° ESE visible
